SCP
0 0 -0 -0 -0 0 0 0 0 0 -0 -0 -0 -0 0 0 0 0 0 0 0 0 0 0 0 0 0 0 0 0 0 0 0 0 0 0 0 0
0 0 -0 -0 -0 -0 0 -0 -0 -0 -0 -0 -0 -0 -0 0 0 0 0 0 0 0 0 0 0 0 0 0 0 0 0 0 0 0 0 0 0 0
-0 0 -0 0 0 0 0 -0 0 0 0 -0 0 0 0 0 0 0 0 0 0 0 0 0 0 0 0 0 0 0 0 0 0 0 0 0 0 0
-0 -0 -0 0 0 0 0 0 -0 0 0 0 0 0 0 0 0 0 0 0 0 0 0 0 0 0 0 0 0 0 0 0 0 0 0 0 0 0
-0 -0 -0 0 0 0 -0 -0 0 0 0 0 0 0 0 0 0 0 0 0 0 0 0 0 0 0 0 0 0 0 0 0 0 0 0 0 0 0
-0 -0 -0 -0 -0 -0 0 -0 0 0 0 0 0 0 0 0 0 0 0 0 0 0 0 0 0 0 0 0 0 0 0 0 0 0 0 0 0 0
-0 -0 -0 -0 -0 -0 -0 0 0 0 0 0 0 0 0 0 0 1 0 0 0 0 0 0 0 0 0 0 0 0 0 0 0 0 0 0 0 0
-0 -0 -0 -0 -0 -0 -0 -0 0 0 0 1 0 0 1 1 1 1 0 0 0 0 0 0 0 0 0 0 0 0 0 0 0 0 0 0 -0 0
-0 0 0 0 0 0 0 0 0 0 0 1 1 1 1 2 2 2 1 0 0 1 0 0 0 0 0 0 0 0 0 0 0 0 0 0 -0 -0
0 -0 -0 0 0 0 0 0 0 0 0 0 1 1 2 2 3 2 1 0 0 0 0 0 0 0 0 0 0 -0 0 0 0 -0 -0 0 -0 -0
0 0 0 0 0 0 0 0 0 1 1 0 0 1 0 0 0 1 1 1 1 0 0 0 0 0 0 0 0 0 0 0 0 0 0 -0 -0 -0
0 0 0 0 1 0 0 0 0 1 2 2 1 0 0 0 0 0 1 1 1 0 0 0 0 0 0 0 0 0 0 0 -0 0 -0 -0 -0 0
1 1 1 0 0 0 0 1 1 1 2 2 2 2 2 1 2 3 2 0 1 0 0 0 0 0 0 0 0 0 0 0 -0 0 -0 -0 -0 0
0 1 1 1 1 0 0 0 0 0 1 2 2 2 2 2 3 3 2 0 0 0 0 0 0 0 0 0 0 0 0 -0 -0 -0 -0 -0 -0 0
0 1 1 1 1 0 0 0 0 0 0 1 1 1 2 2 2 2 0 0 0 0 0 0 0 0 0 0 0 0 0 0 0 -0 -0 0 0 0
0 0 1 1 1 1 1 0 0 0 0 1 1 1 1 1 1 0 0 0 0 0 0 0 0 0 0 0 0 -0 -0 0 0 0 0 0 0 0
1 2 1 1 1 1 1 0 0 0 0 0 0 0 0 0 0 0 0 0 0 0 0 0 0 0 0 0 0 -0 -0 0 0 -0 0 0 0 0
1 2 2 2 2 2 1 1 0 0 0 0 0 0 0 0 0 0 0 0 0 0 0 0 0 0 0 0 0 0 0 0 0 0 0 0 0 0
2 2 2 3 2 2 1 1 0 0 0 0 0 0 0 0 0 0 0 0 0 0 0 0 0 0 0 0 0 0 0 0 0 0 0 0 0 0
1 2 2 2 2 1 0 0 0 0 0 0 0 0 0 0 0 0 0 0 0 0 0 0 0 0 0 0 0 0 0 0 0 0 0 0 0 0
1 1 1 1 0 0 0 0 0 0 0 0 0 0 0 0 0 0 0 0 0 0 0 0 0 0 0 0 0 0 0 0 0 0 0 0 0 0
0 0 0 0 0 0 0 0 0 0 0 0 0 0 0 0 0 0 0 0 0 0 0 0 0 0 0 0 0 0 0 0 0 0 0 0 0 0
0 0 0 0 0 0 0 0 0 0 0 0 0 0 0 0 0 0 0 0 0 0 0 0 0 0 0 0 0 0 0 0 0 0 0 0 0 0
Wind_Speed_500mb
35 34 34 34 32 30 32 32 35 44 48 38 37 32 29 27 25 29 33 33 34 33 31 32 33 32 33 32 29 27 26 23 23 27 27 21 19 18
36 38 35 31 35 37 38 39 40 44 54 49 43 40 36 35 33 36 37 40 43 44 43 40 41 38 37 36 34 32 29 29 25 25 22 19 17 15
36 38 40 37 36 38 42 46 49 52 59 61 54 48 48 46 44 46 47 49 50 52 53 51 49 46 44 45 41 37 31 33 29 26 22 17 12 12
45 44 42 42 46 44 45 47 49 51 58 67 67 64 61 58 58 60 60 60 60 60 61 61 58 55 54 51 48 46 43 41 35 31 22 21 18 17
49 52 46 44 48 52 52 54 54 54 57 67 72 75 77 73 73 73 74 76 76 72 69 69 70 66 64 64 53 53 57 49 44 40 30 20 21 21
50 49 45 45 44 45 50 56 60 64 68 74 79 83 83 80 82 84 85 83 87 83 82 78 75 77 76 68 63 61 61 56 61 44 35 25 25 24
55 54 52 49 46 46 50 50 53 57 62 69 77 82 85 85 85 86 89 85 89 81 80 80 79 85 91 90 76 74 69 50 60 49 40 28 28 25
66 63 61 59 58 57 59 61 65 68 71 75 82 89 92 92 89 87 89 91 96 81 74 79 68 83 88 91 78 68 54 35 52 47 45 31 28 22
78 76 75 72 69 69 68 70 71 72 73 73 83 88 93 85 78 82 86 89 89 91 87 92 88 90 87 83 86 78 62 53 31 41 47 36 30 23
82 80 81 80 79 75 74 76 76 74 70 68 73 79 74 65 62 72 77 79 84 86 92 94 87 86 86 84 79 87 55 46 39 50 44 38 32 27
79 79 79 77 72 69 71 73 73 73 69 64 55 39 41 41 44 58 68 75 91 87 73 78 75 66 48 60 68 55 45 36 50 48 36 39 34 28
69 69 71 72 66 63 65 65 70 65 51 39 45 42 41 44 45 48 60 72 73 72 60 51 65 48 27 21 20 23 32 49 52 40 45 41 35 27
60 61 61 56 52 51 50 52 54 39 35 44 46 51 56 59 55 52 56 59 60 60 56 51 43 43 22 23 21 35 46 51 49 50 46 37 34 27
62 59 55 50 46 40 42 43 35 34 40 43 48 52 50 57 59 64 60 53 44 41 41 38 33 30 29 26 48 49 53 54 51 50 44 39 34 28
59 57 54 51 47 43 41 38 39 39 42 56 50 51 48 54 59 63 56 43 36 25 9 13 24 16 21 27 52 58 62 55 52 45 41 36 31 27
54 52 52 53 53 51 49 47 46 43 46 44 47 44 48 54 58 50 39 25 8 11 18 16 16 13 25 31 40 58 54 49 50 43 37 34 30 27
38 47 55 52 52 53 50 50 48 47 43 41 44 44 49 45 36 25 5 2 15 23 14 19 18 19 24 30 49 51 51 44 42 40 38 32 28 24
40 49 50 48 48 44 41 44 42 41 40 40 41 43 33 25 14 8 5 7 20 25 16 27 35 41 41 37 37 47 44 40 33 38 32 29 26 21
41 46 48 45 42 40 37 39 41 41 39 40 37 28 23 20 17 13 13 14 21 24 24 40 40 42 53 52 46 42 34 39 37 38 35 30 22 17
43 43 48 46 45 43 43 42 41 39 39 34 28 24 22 20 21 16 16 22 25 30 32 39 34 42 46 48 42 47 42 33 40 39 38 28 19 15
46 46 44 43 43 42 40 39 39 38 34 31 29 26 26 25 20 15 20 25 26 32 43 40 34 39 35 32 29 37 41 36 30 31 27 25 19 16
44 41 40 36 33 34 36 39 38 35 34 31 30 29 30 28 22 25 27 29 33 35 39 39 42 44 41 34 28 29 39 40 40 35 23 21 19 13
40 39 40 39 39 38 37 36 36 35 34 32 29 29 31 30 27 28 32 29 33 34 36 45 49 47 38 31 25 25 30 44 50 46 37 31 24 21
Wind_Direction_500mb
255 258 263 260 260 266 276 280 282 292 299 302 306 310 312 309 300 289 285 283 280 278 275 274 274 273 271 272 272 277 283 289 304 312 312 304 299 296
258 258 265 266 261 263 269 272 276 283 289 294 300 302 303 295 292 292 289 281 273 272 270 268 266 268 266 263 264 267 274 279 288 301 308 306 300 301
267 266 264 264 265 266 270 270 271 274 279 288 292 296 295 296 295 291 286 280 278 270 267 267 265 261 261 261 257 258 262 270 275 283 292 296 282 293
267 269 269 265 264 266 268 268 269 271 277 283 289 291 291 292 291 290 289 284 279 274 267 263 264 263 260 256 253 249 245 248 255 265 264 272 270 286
267 264 266 268 266 264 266 269 272 277 279 282 285 289 291 292 292 290 288 287 284 280 274 266 261 259 260 254 248 240 248 243 243 249 261 252 268 282
260 260 258 262 266 269 269 270 273 274 277 279 282 285 287 290 290 291 292 292 289 286 282 279 272 263 256 251 244 243 240 248 243 240 246 244 258 282
254 256 260 262 265 270 274 277 279 280 280 282 284 288 290 293 294 298 297 298 294 292 288 277 276 268 259 246 234 232 243 255 257 238 235 232 251 272
256 258 260 263 265 269 272 274 278 281 284 286 288 289 291 295 300 303 301 300 299 304 298 293 283 275 266 262 233 236 232 272 286 227 231 223 240 248
257 259 263 265 268 271 272 275 275 276 279 284 286 288 295 300 302 299 301 300 301 303 298 296 294 287 276 272 233 239 231 251 250 223 223 223 221 234
259 260 263 265 268 271 274 275 275 277 277 279 281 287 291 296 294 298 300 300 299 300 298 290 299 291 281 271 238 230 221 262 246 204 216 214 201 224
258 261 263 265 266 269 273 275 278 281 286 287 289 292 290 292 298 299 300 303 301 304 303 298 299 288 262 215 209 226 239 261 198 200 208 194 198 224
258 260 262 266 269 271 272 276 278 283 295 298 298 292 292 291 293 296 303 300 306 302 309 298 299 260 170 194 219 218 187 188 193 199 188 191 201 225
263 264 266 269 273 276 277 276 279 293 290 288 289 294 300 302 305 303 297 296 302 297 314 302 263 215 164 163 195 192 182 181 178 181 183 190 206 224
265 270 271 274 276 271 265 269 276 280 279 283 286 287 299 301 304 303 307 308 298 302 306 308 239 204 220 196 187 181 173 173 179 183 187 197 210 226
263 269 274 275 273 271 266 268 267 270 273 278 282 288 296 298 298 299 304 301 308 308 320 267 188 248 209 206 171 170 168 175 183 189 193 203 216 229
257 264 266 265 266 267 266 264 265 266 266 271 280 286 290 292 294 296 297 302 305 140 141 176 194 182 193 179 177 170 177 177 186 198 208 207 219 231
258 256 255 257 258 260 259 258 259 259 262 267 275 281 287 290 289 291 242 135 166 155 147 182 165 151 172 167 175 180 183 189 195 205 205 216 225 235
243 247 257 260 259 259 251 252 251 252 257 265 270 281 280 271 250 213 176 155 184 186 200 173 170 164 165 161 177 182 188 198 202 199 208 215 225 250
245 251 256 260 256 252 252 248 249 256 254 265 273 265 253 237 206 208 239 212 189 196 183 182 182 190 165 164 172 190 204 206 207 201 203 210 228 249
252 255 257 257 256 256 253 253 254 252 264 265 252 247 231 218 211 236 219 196 196 201 195 185 191 190 187 180 185 195 201 218 210 202 200 212 229 253
256 257 258 262 258 252 248 244 247 258 255 247 246 235 221 217 227 215 198 181 188 183 181 184 188 187 198 197 200 201 204 192 209 204 205 215 232 248
245 248 249 248 249 246 247 251 250 244 242 243 241 231 214 213 213 197 202 190 178 185 188 188 184 191 202 210 205 201 194 192 195 203 214 226 244 248
242 239 243 248 250 248 245 239 237 237 238 233 228 213 204 202 197 196 194 193 188 188 192 190 188 195 199 204 201 194 205 206 205 212 221 230 242 254
Wind_Speed_850mb
35 34 34 34 32 30 32 32 35 44 48 38 37 32 29 27 25 29 33 33 34 33 31 32 33 32 33 32 29 27 26 23 23 27 27 21 19 18
36 38 35 31 35 37 38 39 40 44 54 49 43 40 36 35 33 36 37 40 43 44 43 40 41 38 37 36 34 32 29 29 25 25 22 19 17 15
36 38 40 37 36 38 42 46 49 52 59 61 54 48 48 46 44 46 47 49 50 52 53 51 49 46 44 45 41 37 31 33 29 26 22 17 12 12
45 44 42 42 46 44 45 47 49 51 58 67 67 64 61 58 58 60 60 60 60 60 61 61 58 55 54 51 48 46 43 41 35 31 22 21 18 17
49 52 46 44 48 52 52 54 54 54 57 67 72 75 77 73 73 73 74 76 76 72 69 69 70 66 64 64 53 53 57 49 44 40 30 20 21 21
50 49 45 45 44 45 50 56 60 64 68 74 79 83 83 80 82 84 85 83 87 83 82 78 75 77 76 68 63 61 61 56 61 44 35 25 25 24
55 54 52 49 46 46 50 50 53 57 62 69 77 82 85 85 85 86 89 85 89 81 80 80 79 85 91 90 76 74 69 50 60 49 40 28 28 25
66 63 61 59 58 57 59 61 65 68 71 75 82 89 92 92 89 87 89 91 96 81 74 79 68 83 88 91 78 68 54 35 52 47 45 31 28 22
78 76 75 72 69 69 68 70 71 72 73 73 83 88 93 85 78 82 86 89 89 91 87 92 88 90 87 83 86 78 62 53 31 41 47 36 30 23
82 80 81 80 79 75 74 76 76 74 70 68 73 79 74 65 62 72 77 79 84 86 92 94 87 86 86 84 79 87 55 46 39 50 44 38 32 27
79 79 79 77 72 69 71 73 73 73 69 64 55 39 41 41 44 58 68 75 91 87 73 78 75 66 48 60 68 55 45 36 50 48 36 39 34 28
69 69 71 72 66 63 65 65 70 65 51 39 45 42 41 44 45 48 60 72 73 72 60 51 65 48 27 21 20 23 32 49 52 40 45 41 35 27
60 61 61 56 52 51 50 52 54 39 35 44 46 51 56 59 55 52 56 59 60 60 56 51 43 43 22 23 21 35 46 51 49 50 46 37 34 27
62 59 55 50 46 40 42 43 35 34 40 43 48 52 50 57 59 64 60 53 44 41 41 38 33 30 29 26 48 49 53 54 51 50 44 39 34 28
59 57 54 51 47 43 41 38 39 39 42 56 50 51 48 54 59 63 56 43 36 25 9 13 24 16 21 27 52 58 62 55 52 45 41 36 31 27
54 52 52 53 53 51 49 47 46 43 46 44 47 44 48 54 58 50 39 25 8 11 18 16 16 13 25 31 40 58 54 49 50 43 37 34 30 27
38 47 55 52 52 53 50 50 48 47 43 41 44 44 49 45 36 25 5 2 15 23 14 19 18 19 24 30 49 51 51 44 42 40 38 32 28 24
40 49 50 48 48 44 41 44 42 41 40 40 41 43 33 25 14 8 5 7 20 25 16 27 35 41 41 37 37 47 44 40 33 38 32 29 26 21
41 46 48 45 42 40 37 39 41 41 39 40 37 28 23 20 17 13 13 14 21 24 24 40 40 42 53 52 46 42 34 39 37 38 35 30 22 17
43 43 48 46 45 43 43 42 41 39 39 34 28 24 22 20 21 16 16 22 25 30 32 39 34 42 46 48 42 47 42 33 40 39 38 28 19 15
46 46 44 43 43 42 40 39 39 38 34 31 29 26 26 25 20 15 20 25 26 32 43 40 34 39 35 32 29 37 41 36 30 31 27 25 19 16
44 41 40 36 33 34 36 39 38 35 34 31 30 29 30 28 22 25 27 29 33 35 39 39 42 44 41 34 28 29 39 40 40 35 23 21 19 13
40 39 40 39 39 38 37 36 36 35 34 32 29 29 31 30 27 28 32 29 33 34 36 45 49 47 38 31 25 25 30 44 50 46 37 31 24 21
Wind_Direction_850mb
255 258 263 260 260 266 276 280 282 292 299 302 306 310 312 309 300 289 285 283 280 278 275 274 274 273 271 272 272 277 283 289 304 312 312 304 299 296
258 258 265 266 261 263 269 272 276 283 289 294 300 302 303 295 292 292 289 281 273 272 270 268 266 268 266 263 264 267 274 279 288 301 308 306 300 301
267 266 264 264 265 266 270 270 271 274 279 288 292 296 295 296 295 291 286 280 278 270 267 267 265 261 261 261 257 258 262 270 275 283 292 296 282 293
267 269 269 265 264 266 268 268 269 271 277 283 289 291 291 292 291 290 289 284 279 274 267 263 264 263 260 256 253 249 245 248 255 265 264 272 270 286
267 264 266 268 266 264 266 269 272 277 279 282 285 289 291 292 292 290 288 287 284 280 274 266 261 259 260 254 248 240 248 243 243 249 261 252 268 282
260 260 258 262 266 269 269 270 273 274 277 279 282 285 287 290 290 291 292 292 289 286 282 279 272 263 256 251 244 243 240 248 243 240 246 244 258 282
254 256 260 262 265 270 274 277 279 280 280 282 284 288 290 293 294 298 297 298 294 292 288 277 276 268 259 246 234 232 243 255 257 238 235 232 251 272
256 258 260 263 265 269 272 274 278 281 284 286 288 289 291 295 300 303 301 300 299 304 298 293 283 275 266 262 233 236 232 272 286 227 231 223 240 248
257 259 263 265 268 271 272 275 275 276 279 284 286 288 295 300 302 299 301 300 301 303 298 296 294 287 276 272 233 239 231 251 250 223 223 223 221 234
259 260 263 265 268 271 274 275 275 277 277 279 281 287 291 296 294 298 300 300 299 300 298 290 299 291 281 271 238 230 221 262 246 204 216 214 201 224
258 261 263 265 266 269 273 275 278 281 286 287 289 292 290 292 298 299 300 303 301 304 303 298 299 288 262 215 209 226 239 261 198 200 208 194 198 224
258 260 262 266 269 271 272 276 278 283 295 298 298 292 292 291 293 296 303 300 306 302 309 298 299 260 170 194 219 218 187 188 193 199 188 191 201 225
263 264 266 269 273 276 277 276 279 293 290 288 289 294 300 302 305 303 297 296 302 297 314 302 263 215 164 163 195 192 182 181 178 181 183 190 206 224
265 270 271 274 276 271 265 269 276 280 279 283 286 287 299 301 304 303 307 308 298 302 306 308 239 204 220 196 187 181 173 173 179 183 187 197 210 226
263 269 274 275 273 271 266 268 267 270 273 278 282 288 296 298 298 299 304 301 308 308 320 267 188 248 209 206 171 170 168 175 183 189 193 203 216 229
257 264 266 265 266 267 266 264 265 266 266 271 280 286 290 292 294 296 297 302 305 140 141 176 194 182 193 179 177 170 177 177 186 198 208 207 219 231
258 256 255 257 258 260 259 258 259 259 262 267 275 281 287 290 289 291 242 135 166 155 147 182 165 151 172 167 175 180 183 189 195 205 205 216 225 235
243 247 257 260 259 259 251 252 251 252 257 265 270 281 280 271 250 213 176 155 184 186 200 173 170 164 165 161 177 182 188 198 202 199 208 215 225 250
245 251 256 260 256 252 252 248 249 256 254 265 273 265 253 237 206 208 239 212 189 196 183 182 182 190 165 164 172 190 204 206 207 201 203 210 228 249
252 255 257 257 256 256 253 253 254 252 264 265 252 247 231 218 211 236 219 196 196 201 195 185 191 190 187 180 185 195 201 218 210 202 200 212 229 253
256 257 258 262 258 252 248 244 247 258 255 247 246 235 221 217 227 215 198 181 188 183 181 184 188 187 198 197 200 201 204 192 209 204 205 215 232 248
245 248 249 248 249 246 247 251 250 244 242 243 241 231 214 213 213 197 202 190 178 185 188 188 184 191 202 210 205 201 194 192 195 203 214 226 244 248
242 239 243 248 250 248 245 239 237 237 238 233 228 213 204 202 197 196 194 193 188 188 192 190 188 195 199 204 201 194 205 206 205 212 221 230 242 254